Location: Gaast
(52.9002°N, 5.8891°E)
Time: 09:22:38
(UTC+00:00)

Cosmos 2034 Rocket - Pass Details

Date: 18 November 2025
Orbit: 958 x 998 km, 82.9° (Epoch: 12 December)

Event Time Altitude Azimuth Distance (km) Brightness Sun altitude
Rises 17:56:22 0° 177° (S) 3,644 7.0 -20.5°
Reaches altitude 10° 17:58:52 10° 175° (S) 2,706 6.3 -20.9°
Maximum altitude 18:04:59 65° 95° (E) 1,068 3.9 -21.8°
Drops below altitude 10° 18:11:13 10° 15° (NNE) 2,752 6.2 -22.8°
Sets 18:13:46 0° 13° (NNE) 3,710 6.9 -23.1°
